Location: Knowlton
(51.2333°N, 1.2667°E)
Time: 05:10:16
(UTC+00:00)

SeaSat 1 - Pass Details

Date: 18 April 2021
Orbit: 744 x 747 km, 108.0° (Epoch: 06 May)

Event Time Altitude Azimuth Distance (km) Brightness Sun altitude
Rises 22:57:06 0° 30° (NNE) 3,205 6.3 -26.4°
Reaches altitude 10° 22:59:22 10° 29° (NNE) 2,277 5.5 -26.5°
Maximum altitude 23:04:20 82° 303° (WNW) 762 2.4 -26.7°
Enters shadow 23:04:24 82° 287° (WNW) 762 2.4 -26.7°
